[[{"header":{"parameterUnit":"m.s-1","parameterCategory":1,"la1":30.2991,"la2":30.254,"lo1":-89.0895,"lo2":-89.0444,"dy":0.0017,"dx":0.0017,"nx":28,"ny":28,"refTime":"2025-07-07T09:00:00:Z","depth":0,"parameterNumber":2,"parameterNumberName":"U-component_of_WINDS"},"data":[0,0,0,0,0,0,0,0,0,0,0,0,0,0,0,0,0,0,0,0,0,0,0,0,0,0,0,0,0,0,0,0,0,0,0,0,0,0,0,0,0,0,0,0,0,0,0,0,0,0,0,0,0,0,0,0,0,0,2.224,2.224,0,2.2273,2.2274,2.2274,2.2134,2.213,2.2126,2.2122,2.2161,2.2165,2.217,0,0,0,0,0,0,0,0,0,0,0,0,0,2.2059,2.2063,2.224,2.224,2.2241,2.2273,2.2274,2.2274,2.2135,2.213,2.2125,2.212,2.2159,2.2165,2.2171,0,0,0,0,0,0,0,0,0,0,0,0,0,2.212,2.2064,2.224,2.2175,2.2169,2.2273,2.2274,2.2274,2.2136,2.213,2.2124,2.2118,2.2157,2.2164,2.2172,2.234,0,0,2.2194,2.2197,0,0,0,0,0,0,0,0,2.2116,2.2126,2.2184,2.218,2.2174,2.2193,2.2224,2.2297,2.2138,2.2149,2.2122,2.2115,2.2177,2.2182,2.2202,2.2342,2.2344,2.2194,2.2199,2.2202,2.2204,0,0,0,0,0,0,0,2.2112,2.2124,2.2253,2.2185,2.2179,2.2145,2.2147,2.2237,2.2197,2.2147,2.2137,2.2143,2.2173,2.2195,2.2202,2.2344,2.2194,2.2201,2.2205,2.2208,2.2624,2.2631,0,0,0,0,0,0,2.2116,2.2122,2.2252,2.2254,2.2129,2.2154,2.2156,2.2193,2.2196,2.219,2.2148,2.2136,2.2186,2.2194,2.2203,2.24,2.2202,2.2209,2.2213,2.2618,2.2626,2.2633,0,0,0,0,0,0,2.2113,2.2129,2.2251,2.2185,2.2198,2.2163,2.2207,2.2197,2.2219,2.2196,2.2189,2.2178,2.2181,2.2193,2.2307,2.24,2.2212,2.2219,2.261,2.262,2.263,2.2797,0,0,0,0,0,0,2.2108,2.2129,2.2192,2.2188,2.2202,2.2354,2.2212,2.2202,2.2232,2.2217,2.2223,2.2218,2.2177,2.2297,2.2314,2.2406,2.2224,2.2601,2.2615,2.2626,2.2783,2.2812,2.2836,0,0,0,0,0,2.2102,2.2239,2.2196,2.2212,2.228,2.2359,2.2367,2.2317,2.224,2.2303,2.2289,2.2218,2.2387,2.231,2.2328,2.2424,2.2595,2.2611,2.2625,2.2771,2.2806,2.2835,0,0,0,0,0,0,2.2256,2.2237,2.2189,2.2328,2.2346,2.2335,2.2414,2.2355,2.2397,2.2381,2.2318,2.2321,2.2446,2.2446,2.2361,2.2587,2.2478,2.2497,2.2583,2.2615,2.2641,2.2639,2.2231,0,0,0,0,0,2.2306,2.2371,2.2351,2.2475,2.2487,2.2449,2.2482,2.2441,2.2458,2.2465,2.2459,2.2479,2.2536,2.2576,2.2628,2.2782,2.2782,2.2858,2.2884,2.2906,2.2923,2.3005,2.3039,2.2683,2.2682,2.2682,0,0,2.241,2.2407,2.2452,2.2506,2.2515,2.2585,2.2457,2.2536,2.2587,2.2478,2.2585,2.2581,2.2599,2.2735,2.2794,2.2739,2.3022,2.2925,2.2943,2.2948,2.3024,2.3058,2.3088,2.2693,2.2691,2.2689,0,0,2.2635,2.2639,2.2743,2.2755,2.277,2.2744,2.2769,2.2768,2.276,2.2866,2.2786,2.2847,2.2947,2.2964,2.2985,2.3217,2.3153,2.3235,2.3374,2.3454,2.3482,2.3507,2.3589,2.362,2.3253,2.3253,2.3254,0,2.2762,2.2862,2.2804,2.2888,2.2915,2.2818,2.2923,2.2938,2.297,2.2991,2.2928,2.3052,2.3058,2.3195,2.3252,2.3273,2.33,2.3234,2.3483,2.3507,2.3529,2.3607,2.3638,2.3263,2.3262,2.3261,2.326,0,2.3019,2.309,2.3172,2.3204,2.3239,2.3334,2.3291,2.3334,2.3291,2.3272,2.3382,2.3385,2.3436,2.3466,2.3425,2.3598,2.3563,2.3493,2.3382,2.3574,2.3646,2.3675,2.3277,2.3274,2.3271,2.3269,0,0,2.3341,2.3339,2.337,2.3383,2.3393,2.3448,2.3538,2.3586,2.3625,2.3651,2.3725,2.3813,2.3747,2.3772,2.3732,2.3803,2.3986,2.3723,2.3723,2.3772,2.4177,2.423,2.4265,2.3944,2.3949,2.3954,2.4176,0,2.3561,2.3714,2.3664,2.382,2.3885,2.3794,2.3873,2.3889,2.3874,2.3928,2.3911,2.3974,2.3883,2.3897,2.3964,2.395,2.4066,2.3933,2.4014,2.4017,2.4011,2.4303,2.4359,2.4568,2.4203,2.4208,2.4212,0,2.3838,2.3873,2.4035,2.4034,2.4059,2.4131,2.4171,2.4223,2.4239,2.4223,2.4251,2.4196,2.4286,2.4175,2.4298,2.4209,2.4239,2.4237,2.4244,2.425,2.4126,2.4316,2.4634,2.4665,2.4256,2.4252,2.4249,0,2.4057,2.4145,2.4253,2.4267,2.4268,2.4321,2.4324,2.4333,2.4365,2.4401,2.4421,2.4468,2.4494,2.4531,2.4491,2.4414,2.4621,2.4506,2.4611,2.4612,2.4658,2.4656,2.4985,2.4679,2.4678,2.4678,2.4677,0,2.4307,2.441,2.4351,2.4417,2.453,2.4472,2.4586,2.4579,2.4588,2.4653,2.4578,2.464,2.4583,2.4641,2.461,2.4717,2.4729,2.472,2.471,2.4726,2.4727,2.4745,2.4729,2.4686,2.4684,2.4683,2.4681,0,2.457,2.4535,2.4646,2.4638,2.4638,2.4722,2.4715,2.4777,2.4756,2.4839,2.4855,2.4824,2.4888,2.4851,2.4917,2.4896,2.5035,2.5006,2.5029,2.5022,2.5128,2.5118,2.5479,2.5524,2.519,2.5193,2.5196,0,2.4732,2.4808,2.4808,2.4845,2.4853,2.4914,2.4946,2.4893,2.4929,2.4953,2.5013,2.507,2.5112,2.5219,2.5203,2.5253,2.5225,2.5348,2.5232,2.5245,2.5226,2.5222,2.5229,2.5371,2.5375,2.5378,2.5381,0,2.5023,2.5002,2.5049,2.5093,2.5132,2.5164,2.5189,2.5224,2.5171,2.5217,2.528,2.5314,2.538,2.5438,2.5481,2.5485,2.5426,2.5418,2.5444,2.5461,2.5471,2.5467,2.5093,2.5409,2.5407,2.5404,2.5403,2.5402,2.524,2.5303,2.5313,2.5369,2.5382,2.5408,2.5465,2.5452,2.5503,2.5552,2.5519,2.5594,2.5609,2.5659,2.5672,2.5731,2.5681,2.572,2.573,2.574,2.5755,2.5462,2.5739,2.5738,2.5737,2.5736,2.5736,0,2.5526,2.5527,2.558,2.5617,2.5662,2.56,2.5625,2.5667,2.5734,2.5752,2.5795,2.5868,2.5924,2.5913,2.5964,2.6013,2.5987,2.6028,2.6024,2.6026,2.5796,2.5768,2.6049,2.6049,2.6049,2.6048,2.6048,2.6048,2.568,2.5784,2.5764,2.5875,2.5876,2.5948,2.5967,2.5991,2.6005,2.609,2.6135,2.6127,2.6133,2.6184,2.6233,2.6228,2.625,2.6302,2.6287,2.6073,2.6042,2.6012,2.5985,2.6307,2.6308,2.6511,2.6513,2.6515]},{"header":{"parameterUnit":"m.s-1","parameterCategory":1,"la1":30.2991,"la2":30.254,"lo1":-89.0895,"lo2":-89.0444,"dy":0.0017,"dx":0.0017,"nx":28,"ny":28,"refTime":"2025-07-07T09:00:00:Z","depth":0,"parameterNumber":3,"parameterNumberName":"V-component_of_WINDS"},"data":[0,0,0,0,0,0,0,0,0,0,0,0,0,0,0,0,0,0,0,0,0,0,0,0,0,0,0,0,0,0,0,0,0,0,0,0,0,0,0,0,0,0,0,0,0,0,0,0,0,0,0,0,0,0,0,0,0,0,1.7042,1.7042,0,1.7038,1.7038,1.7038,1.6917,1.6914,1.6911,1.6908,1.6905,1.6908,1.6911,0,0,0,0,0,0,0,0,0,0,0,0,0,1.6945,1.6948,1.7042,1.7042,1.7042,1.7038,1.7038,1.7038,1.6918,1.6914,1.691,1.6907,1.6904,1.6908,1.6911,0,0,0,0,0,0,0,0,0,0,0,0,0,1.6969,1.6948,1.7042,1.6982,1.6976,1.7038,1.7038,1.7038,1.6919,1.6914,1.6909,1.6905,1.6903,1.6908,1.6912,1.7032,0,0,1.6925,1.6927,0,0,0,0,0,0,0,0,1.6968,1.6973,1.699,1.6986,1.698,1.6974,1.7003,1.7036,1.692,1.6941,1.6908,1.6903,1.6932,1.6934,1.6943,1.7032,1.7032,1.6925,1.6928,1.693,1.6931,0,0,0,0,0,0,0,1.6966,1.6972,1.7041,1.6991,1.6984,1.6955,1.6953,1.7009,1.6963,1.6938,1.693,1.6931,1.6928,1.6939,1.6942,1.7032,1.6925,1.6929,1.6931,1.6933,1.7219,1.7224,0,0,0,0,0,0,1.6973,1.6972,1.7041,1.704,1.6962,1.696,1.6958,1.698,1.6962,1.6954,1.6935,1.6925,1.6934,1.6937,1.6942,1.7081,1.6929,1.6933,1.6936,1.7214,1.722,1.7225,0,0,0,0,0,0,1.6971,1.698,1.7041,1.7004,1.7009,1.6967,1.6993,1.6983,1.6994,1.6959,1.695,1.6955,1.6931,1.6936,1.701,1.708,1.6935,1.6939,1.7208,1.7216,1.7223,1.7362,0,0,0,0,0,0,1.6969,1.698,1.7026,1.7006,1.7012,1.711,1.6997,1.6986,1.7001,1.6989,1.6975,1.6969,1.6928,1.7005,1.7015,1.7083,1.6943,1.7201,1.7211,1.722,1.7352,1.7374,1.7393,0,0,0,0,0,1.6966,1.7065,1.7029,1.7038,1.7067,1.7114,1.7118,1.7068,1.7008,1.7053,1.703,1.6969,1.707,1.7013,1.7024,1.7094,1.7197,1.7209,1.722,1.7342,1.7369,1.7393,0,0,0,0,0,0,1.7095,1.7062,1.7021,1.7116,1.7119,1.7094,1.7149,1.7098,1.7119,1.7106,1.7043,1.7042,1.7126,1.7117,1.7054,1.721,1.7123,1.7137,1.7213,1.7238,1.7259,1.7259,1.6946,0,0,0,0,0,1.7135,1.7176,1.7144,1.7232,1.7235,1.7193,1.7211,1.7172,1.7173,1.7173,1.7156,1.7159,1.7191,1.7214,1.7242,1.7349,1.7345,1.7403,1.7424,1.7441,1.7454,1.751,1.7536,1.7263,1.7262,1.7262,0,0,1.7217,1.7204,1.7234,1.7257,1.7255,1.7299,1.7194,1.7245,1.7277,1.7181,1.7251,1.7238,1.7237,1.7329,1.7369,1.7324,1.7528,1.7455,1.7469,1.7473,1.7525,1.755,1.7574,1.727,1.7269,1.7268,0,0,1.739,1.7384,1.7456,1.7456,1.7453,1.7424,1.7441,1.7424,1.7412,1.7481,1.741,1.7447,1.7503,1.7506,1.7514,1.7688,1.7632,1.7698,1.7807,1.7863,1.7885,1.7903,1.7966,1.7989,1.7711,1.7712,1.7712,0,1.7493,1.7556,1.75,1.7555,1.7568,1.7483,1.7556,1.7558,1.7565,1.7576,1.7526,1.7595,1.7589,1.768,1.7722,1.7732,1.775,1.77,1.7886,1.7904,1.7921,1.798,1.8003,1.772,1.7719,1.7718,1.7717,0,1.7682,1.7727,1.7786,1.7795,1.7814,1.7878,1.7832,1.7858,1.7818,1.7794,1.7865,1.7854,1.7878,1.7896,1.7858,1.7983,1.7955,1.7897,1.7808,1.7956,1.801,1.8032,1.7731,1.7728,1.7726,1.7724,0,0,1.7937,1.7914,1.7936,1.7939,1.793,1.7964,1.8024,1.8047,1.8071,1.8078,1.8127,1.8177,1.8123,1.8133,1.8094,1.8143,1.8281,1.8078,1.8077,1.8117,1.8419,1.8463,1.849,1.8244,1.8248,1.8251,1.8419,0,1.8105,1.8206,1.8157,1.8265,1.8305,1.8225,1.8277,1.8277,1.8257,1.8288,1.8265,1.8302,1.8227,1.8232,1.8277,1.8255,1.8341,1.8242,1.829,1.8292,1.8294,1.8519,1.8566,1.8725,1.844,1.8443,1.8446,0,1.8314,1.833,1.8441,1.8424,1.844,1.8488,1.8505,1.8536,1.8535,1.8516,1.8528,1.8477,1.8534,1.8446,1.8525,1.8459,1.8476,1.8468,1.8473,1.8476,1.8379,1.8529,1.8774,1.8799,1.8478,1.8476,1.8473,0,1.8489,1.8539,1.8612,1.8617,1.8599,1.8634,1.8629,1.8622,1.8639,1.8655,1.8665,1.8687,1.8699,1.8718,1.8674,1.8614,1.876,1.8668,1.8746,1.8748,1.8782,1.878,1.9034,1.8791,1.8791,1.879,1.879,0,1.8682,1.8753,1.869,1.8736,1.8813,1.8756,1.8835,1.882,1.8815,1.8856,1.8788,1.8828,1.8767,1.8801,1.8768,1.8839,1.8845,1.8832,1.8822,1.8838,1.884,1.8849,1.8837,1.8797,1.8795,1.8794,1.8793,0,1.8892,1.8852,1.8927,1.8903,1.8899,1.8958,1.8937,1.8978,1.8952,1.9005,1.9014,1.8974,1.9011,1.8969,1.9002,1.8979,1.9076,1.9049,1.9077,1.907,1.9151,1.9144,1.942,1.9454,1.9189,1.9191,1.9194,0,1.9017,1.9071,1.9053,1.9075,1.9074,1.9111,1.9128,1.9073,1.9094,1.9096,1.9137,1.9168,1.9189,1.9252,1.9226,1.9251,1.9225,1.932,1.9228,1.9243,1.9227,1.9225,1.923,1.9339,1.9342,1.9345,1.9347,0,1.9245,1.9223,1.925,1.9271,1.9293,1.9307,1.9315,1.9338,1.9281,1.9308,1.9344,1.9361,1.9395,1.9427,1.9444,1.9438,1.9384,1.9376,1.9395,1.9413,1.9427,1.9421,1.9129,1.937,1.9368,1.9366,1.9365,1.9364,1.9417,1.9461,1.9455,1.9488,1.9488,1.9498,1.9535,1.9514,1.9543,1.9566,1.9532,1.9578,1.9575,1.9593,1.9593,1.9628,1.9588,1.9616,1.9623,1.9632,1.9644,1.9421,1.9631,1.9631,1.963,1.9629,1.9629,0,1.9642,1.9634,1.9665,1.9679,1.9705,1.965,1.9657,1.9682,1.9723,1.9725,1.9747,1.9789,1.982,1.9796,1.9821,1.9854,1.983,1.9862,1.986,1.9859,1.9679,1.966,1.9882,1.9882,1.9881,1.9881,1.9881,1.9881,1.9762,1.9833,1.981,1.9881,1.9872,1.9917,1.9925,1.9934,1.9934,1.9984,2.0009,1.9993,1.9985,2.0009,2.0034,2.0026,2.0039,2.0081,2.0065,1.9897,1.9872,1.9848,1.983,2.0084,2.0085,2.0243,2.0244,2.0245]}]]